Regional Weather Roundup
Issued by NWS

Home | Current Version | Previous Version | Text Only | Print | Product List | Glossary Off
Versions: 1 2 3 4 5 6 7 8 9 10 11 12 13 14 15 16 17 18 19 20 21 22 23 24 25 26 27 28 29 30 31 32 33 34 35 36 37 38 39 40 41 42 43 44 45 46 47 48 49 50

000
ASUS43 KFSD 181810
RWRSD

WEATHER ROUNDUP FOR SOUTH DAKOTA
NATIONAL WEATHER SERVICE SIOUX FALLS SD
1200 PM CST WED JAN 18 2017

NOTE: "FAIR" INDICATES FEW OR NO CLOUDS BELOW 12,000 FEET WITH NO
SIGNIFICANT WEATHER AND/OR OBSTRUCTIONS TO VISIBILITY.


SDZ001>005-009-010-012>017-181900-
NORTHWEST AND NORTH CENTRAL SOUTH DAKOTA

CITY           SKY/WX    TMP DP  RH WIND       PRES   REMARKS
BUFFALO          N/A     30  20  66 W6        29.66F WCI  24
FAITH            N/A     31  23  72 NW5       29.74F WCI  26
MOBRIDGE       SUNNY     24  16  71 E5        29.74F WCI  18
$$

SDZ012>016-024>037-041>051-057-063-072>074-181900-
SOUTHWEST AND SOUTH CENTRAL SOUTH DAKOTA

CITY           SKY/WX    TMP DP  RH WIND       PRES   REMARKS
RAPID CTY ARPT CLOUDY    29  21  72 S3        29.73F
PIERRE         SUNNY     26  19  74 CALM      29.80S
CUSTER         SUNNY     52  17  25 W14       29.80F
ELLSWORTH AFB  CLOUDY    39  27  60 CALM      29.73S
PHILIP         CLOUDY    35  23  61 SW7       29.77F WCI  29
PINE RIDGE     CLOUDY    36  24  62 SW9       29.81F
SPEARFISH      FAIR      54  30  40 CALM      29.74F
WINNER         FAIR      46  24  42 S5        29.80F
$$

SDZ004>011-016>023-039-040-181900-
NORTHEAST SOUTH DAKOTA

CITY           SKY/WX    TMP DP  RH WIND       PRES   REMARKS
ABERDEEN       SUNNY     27  17  66 S5        29.80F WCI  22
WATERTOWN      CLOUDY    29  23  78 S5        29.79F WCI  24
BROOKINGS      CLOUDY    33  29  85 S12       29.82F WCI  24
SISSETON         N/A     40  27  59 SW7       29.75F
$$

SDZ017-020-022-023-036>040-048>070-181900-
SOUTHEAST SOUTH DAKOTA

CITY           SKY/WX    TMP DP  RH WIND       PRES   REMARKS
SIOUX FALLS    MOSUNNY   40  32  73 S7        29.86F
HURON          CLOUDY    30  24  78 S7        29.83F WCI  23
CHAMBERLAIN    CLOUDY    40  27  61 S3        29.81F
MITCHELL       SUNNY     38  29  70 S6        29.85F
YANKTON        SUNNY     43  32  65 S5        29.87F
$$

ABBREVIATIONS USED IN REMARKS
   TC - TEMPERATURE IN CELSIUS
  WCI - WIND CHILL INDEX
   HX - HEAT INDEX
  VSB - VISIBILITY





USA.gov is the U.S. government's official web portal to all federal, state and local government web resources and services.